STARLINK-1458, 45675

Orbit data source: Space-Track

STARLINK-1458, 45675 is a payload satellite owned by SpaceX/Seattle (US) in LEO that was launched on Thu, 04 Jun 2020 UTC via an FALCON 9 launch vehicle from the Air Force Eastern Test Range (AFETR). Payload-class satellites include a variety of spacecraft equipped with specific instruments for various scientific and technological missions. These include communications satellites like Starlink; space stations such as the ISS; scientific satellites like the Hubble; Earth observation satellites from companies like Planet Labs, Umbra, and HawkEye 360; GPS; miniature CubeSats for education and research; and military/defense satellites.

Loading next visibility...
Identifier
45675, 2020-035U
Orbit
LEO
Country
Flag of USUS
Related business
Manufacturer
SpaceX/Seattle
Mission
Operational Commercial Communications
Bus & Motor
STARLINK, Unknown motor
Mass
260 kg wet, ~248 kg dry
Launch date (UTC)
2020-06-04 (6 years ago)
Launch vehicle
FALCON 9
Launch site
Air Force Eastern Test Range (AFETR)
Object type
Payload
Rocket body
Debris
Shape & HBR
Box + 1 Pan, 10.1 m
Radar Cross Section
13.562 m², Large (>1 m²)

Expand to show TLE details & history
Last TLE update: 7 hours ago

TLE from 7 hours ago
0 STARLINK-1458
1 45675U 20035U   26036.18126335  .00135720  00000-0  35068-2 0  9995
2 45675  53.0544 209.3309 0000568 328.7331  31.3638 15.38151806313843
Epoch: 2026-02-05T04:21Z
TLE epoch observation values (Epoch: 2026-02-05T04:21:01.153Z)
Latitude
-0.00002°
Longitude
8.7389°
Altitude
452.135 km
Speed
7.643 km/s
True Right ascension
13h 57m 19s
True Declination
0° 00' 00"
Sunlit
Object was in daylight at epoch
Visualization orbit readout
Latitude
Unknown
Longitude
Unknown
Altitude
Unknown
Speed
Unknown
Apparent Right ascension
Unknown
Apparent Declination
Unknown
Sunlit
N/A
Visualization observer readout
Local Sidereal Time
13:19:58
Azimuth
Unknown
Elevation
Unknown
Doppler factor
Unknown
Orbital elements
Apogee altitude
452.237 km
Perigee altitude
451.461 km
Semi-major axis
6,829.986 km
Eccentricity
0.00006
Inclination
53.0544°
RAAN
209.3309°
Arg. of periapsis
328.7331°
True anomaly
31.36719°
Mean anomaly
31.3638°
Eccentric anomaly
31.36549°
Mean motion
3.84515 °/min
Orbital period
93.62 mins
BSTAR
0.0035068
Loading maneuver chart data...
Computing Atmospheric mass density...
Loading historical data...
Loading historical data...
Loading historical data...
Loading historical data...
Loading historical data...
Loading historical data...
Loading historical data...

Documentation

Showing up to 5 results
|